Project,Study,Ord_Occ,Event_Num,Cast_ID,Date_Time_UTC,Date_Time_PST,Lat_Dec,Lon_Dec,Sta_ID,Line,Sta,Depth,Pressure,PrQ,Temp1,Temp1Q,Temp2,Temp2Q,TempAve,Salt1,Salt1Q,Salt1_Corr,Salt2,Salt2Q,Salt2_Corr,SaltAve_Corr,Ox1,Ox1Q,Ox1_CruiseCorr,Ox1_StaCorr,Ox2,Ox2Q,Ox2_CruiseCorr,Ox2_StaCorr,OxAve_StaCorr,Ox1uM,Ox1uM_CruiseCorr,Ox1uM_StaCorr,Ox2uM,Ox2uM_CruiseCorr,Ox2uM_StaCorr,OxAveuM_StaCorr,FluorV,FluorQ,EstChl_CruiseCorr,EstChl_StaCorr,ISUSV,ISUSQ,EstNO3_CruiseCorr,EstNO3_StaCorr,SigThetaTS1,SigThetaTS1Q,SigThetaTS2,SigThetaTS2Q,BAT,XMiss,TransQ,pH,pHQ,SPAR,SPARQ,PAR,PARQ,PoT1,PoT2,DynHt,SVA,OxSat1,OxSat2,BTL_Depth,BTL_Temp,SaltB,OxB,OxBuM,Chl-a,Phaeo,NO3,NO2,NH4,PO4,SIL
CalCOFI,2105SH,009,,2105_009d,05-May-2021 21:50:48,05-May-2021 13:50:48,31.84686,-119.56748,093.3 060.0,093.3,060.0,4.000,4.028,,14.3295,,14.3371,,14.3333,33.5388,,33.5400,33.5392,,33.5411,33.5406,5.6838,,6.0102,5.7920,5.7506,,6.0159,5.8565,5.8243,247.650,261.3921,258.4327,250.559,272.5912,259.4872,258.9600,0.0645,,0.2575,0.3354,2.5999,,4.2946,,24.9891,,24.9878,,,,,,,,,,,14.3289,14.3366,0.0078,295.923,97.632,98.795,4,14.350,33.5663,6.054,263.78,0.734,0.192,5.32,0.199,0.14,0.64,2.70
CalCOFI,2105SH,009,,2105_009d,05-May-2021 21:51:00,05-May-2021 13:51:00,31.84684,-119.56744,093.3 060.0,093.3,060.0,5.000,5.035,,14.3247,,14.3121,,14.3184,33.5392,,33.5404,33.5397,,33.5416,33.5410,5.6615,,5.9869,5.7698,5.7403,,6.0052,5.8462,5.8080,246.679,260.3770,257.4355,250.112,271.5425,259.0304,258.2330,0.0663,,0.2707,0.3438,2.5986,,4.2946,,24.9905,,24.9936,,,,,,,,,,,14.3240,14.3114,0.0135,295.824,97.241,98.569,,,,,,,,,,,,
CalCOFI,2105SH,009,,2105_009d,05-May-2021 21:51:02,05-May-2021 13:51:02,31.84683,-119.56744,093.3 060.0,093.3,060.0,6.000,6.042,,14.3550,,14.3135,,14.3343,33.5397,,33.5409,33.5379,,33.5398,33.5404,5.6615,,5.9869,5.7698,5.7295,,5.9940,5.8354,5.8026,246.679,260.3770,257.4355,249.639,271.5425,258.5470,257.9913,0.0688,,0.2890,0.3556,2.5974,,4.2946,,24.9845,,24.9919,,,,,,,,,,,14.3542,14.3126,0.0165,296.426,97.299,98.384,,,,,,,,,,,,
CalCOFI,2105SH,009,,2105_009d,05-May-2021 21:51:03,05-May-2021 13:51:03,31.84682,-119.56744,093.3 060.0,093.3,060.0,7.000,7.049,,14.0985,,14.0894,,14.0940,33.5429,,33.5441,33.5341,,33.5360,33.5401,5.6894,,6.0161,5.7976,5.7486,,6.0138,5.8545,5.8261,247.882,261.6346,258.6710,250.461,272.8417,259.3871,259.0291,0.0663,,0.2707,0.3438,2.5957,,4.2946,,25.0408,,25.0359,,,,,,,,,,,14.0975,14.0883,0.0195,291.088,97.276,98.264,,,,,,,,,,,,
CalCOFI,2105SH,009,,2105_009d,05-May-2021 21:51:07,05-May-2021 13:51:07,31.84683,-119.56744,093.3 060.0,093.3,060.0,8.000,8.056,,14.0140,,14.0078,,14.0109,33.5356,,33.5368,33.5333,,33.5352,33.5360,5.6825,,6.0089,5.7907,5.7479,,6.0131,5.8538,5.8223,247.580,261.3189,258.3608,250.429,272.5156,259.3544,258.8576,0.0710,,0.3051,0.3659,2.5918,,4.2946,,25.0529,,25.0524,,,,,,,,,,,14.0128,14.0066,0.0224,289.971,96.988,98.090,,,,,,,,,,,,
CalCOFI,2105SH,009,,2105_009d,05-May-2021 21:51:08,05-May-2021 13:51:08,31.84682,-119.56744,093.3 060.0,093.3,060.0,9.000,9.063,,13.8882,,13.8876,,13.8879,33.5403,,33.5415,33.5335,,33.5354,33.5385,5.6966,,6.0236,5.8048,5.7600,,6.0256,5.8659,5.8354,248.183,261.9493,258.9801,250.948,273.1668,259.8848,259.4325,0.0788,,0.3620,0.4026,2.5895,,4.2946,,25.0826,,25.0774,,,,,,,,,,,13.8870,13.8864,0.0253,287.168,96.982,98.057,,,,,,,,,,,,
CalCOFI,2105SH,009,,2105_009d,05-May-2021 21:51:10,05-May-2021 13:51:10,31.84682,-119.56742,093.3 060.0,093.3,060.0,10.000,10.070,,13.8037,,13.8021,,13.8029,33.5394,,33.5406,33.5321,,33.5340,33.5373,5.6932,,6.0200,5.8014,5.7687,,6.0346,5.8746,5.8380,248.032,261.7915,258.8250,251.322,273.0037,260.2671,259.5461,0.0822,,0.3867,0.4186,2.5878,,4.2946,,25.0994,,25.0941,,,,,,,,,,,13.8023,13.8007,0.0282,285.599,96.758,98.033,10,14.000,,,261.71,0.807,0.232,5.30,0.196,0.19,0.64,2.56
CalCOFI,2105SH,009,,2105_009d,05-May-2021 21:51:11,05-May-2021 13:51:11,31.84682,-119.56742,093.3 060.0,093.3,060.0,11.000,11.077,,13.7330,,13.7343,,13.7337,33.5365,,33.5377,33.5313,,33.5332,33.5355,5.6755,,6.0015,5.7837,5.7798,,6.0461,5.8857,5.8347,247.258,260.9823,258.0301,251.801,272.1678,260.7566,259.3934,0.0808,,0.3766,0.4120,2.5860,,4.2946,,25.1117,,25.1074,,,,,,,,,,,13.7314,13.7327,0.0311,284.454,96.317,98.085,,,,,,,,,,,,
CalCOFI,2105SH,009,,2105_009d,05-May-2021 21:51:13,05-May-2021 13:51:13,31.84682,-119.56742,093.3 060.0,093.3,060.0,12.000,12.084,,13.7082,,13.7096,,13.7089,33.5372,,33.5384,33.5333,,33.5352,33.5368,5.7052,,6.0326,5.8133,5.7855,,6.0520,5.8914,5.8524,248.552,262.3351,259.3591,252.052,273.5654,261.0131,260.1861,0.0859,,0.4136,0.4360,2.5846,,4.2946,,25.1173,,25.1141,,,,,,,,,,,13.7065,13.7079,0.0339,283.947,96.773,98.135,,,,,,,,,,,,
CalCOFI,2105SH,009,,2105_009d,05-May-2021 21:51:17,05-May-2021 13:51:17,31.84682,-119.56741,093.3 060.0,093.3,060.0,13.000,13.092,,13.6809,,13.6825,,13.6817,33.5401,,33.5413,33.5378,,33.5397,33.5405,5.7232,,6.0514,5.8313,5.7905,,6.0572,5.8964,5.8639,249.332,263.1505,260.1602,252.267,274.4078,261.2328,260.6965,0.0983,,0.5030,0.4943,2.5834,,4.2946,,25.1252,,25.1231,,,,,,,,,,,13.6791,13.6806,0.0368,283.228,97.025,98.168,,,,,,,,,,,,
CalCOFI,2105SH,009,,2105_009d,05-May-2021 21:51:18,05-May-2021 13:51:18,31.84680,-119.56740,093.3 060.0,093.3,060.0,14.000,14.099,,13.6166,,13.6105,,13.6136,33.5474,,33.5486,33.5341,,33.5360,33.5423,5.7888,,6.1200,5.8966,5.8520,,6.1209,5.9579,5.9273,252.185,266.1330,263.0903,254.942,277.4890,263.9667,263.5285,0.1034,,0.5396,0.5183,2.5845,,4.2946,,25.1440,,25.1350,,,,,,,,,,,13.6146,13.6086,0.0396,281.465,98.012,99.063,,,,,,,,,,,,
CalCOFI,2105SH,009,,2105_009d,05-May-2021 21:51:19,05-May-2021 13:51:19,31.84680,-119.56740,093.3 060.0,093.3,060.0,15.000,15.106,,13.3767,,13.3763,,13.3765,33.5550,,33.5562,33.5424,,33.5443,33.5503,5.8099,,6.1421,5.9176,5.8878,,6.1580,5.9937,5.9557,253.092,267.0812,264.0218,256.488,278.4686,265.5468,264.7843,0.1180,,0.6436,0.5869,2.5849,,4.2946,,25.1986,,25.1890,,,,,,,,,,,13.3747,13.3742,0.0425,276.291,97.894,99.197,,,,,,,,,,,,
CalCOFI,2105SH,009,,2105_009d,05-May-2021 21:51:20,05-May-2021 13:51:20,31.84680,-119.56740,093.3 060.0,093.3,060.0,16.000,16.113,,13.3456,,13.3452,,13.3454,33.5552,,33.5564,33.5472,,33.5491,33.5528,5.8072,,6.1393,5.9149,5.8951,,6.1655,6.0010,5.9580,252.974,266.9578,263.9006,256.803,278.3411,265.8687,264.8847,0.0974,,0.4965,0.4901,2.5853,,4.2946,,25.2051,,25.1990,,,,,,,,,,,13.3434,13.3430,0.0452,275.699,97.786,99.260,,,,,,,,,,,,
CalCOFI,2105SH,009,,2105_009d,05-May-2021 21:51:23,05-May-2021 13:51:23,31.84680,-119.56740,093.3 060.0,093.3,060.0,17.000,17.120,,13.3092,,13.3235,,13.3164,33.5510,,33.5522,33.5470,,33.5489,33.5506,5.7784,,6.1092,5.8862,5.8415,,6.1100,5.9474,5.9168,251.719,265.6458,262.6117,254.467,276.9857,263.4813,263.0465,0.1130,,0.6081,0.5634,2.5873,,4.2946,,25.2092,,25.2032,,,,,,,,,,,13.3069,13.3212,0.0488,275.338,97.226,98.313,,,,,,,,,,,,
CalCOFI,2105SH,009,,2105_009d,05-May-2021 21:51:26,05-May-2021 13:51:26,31.84679,-119.56739,093.3 060.0,093.3,060.0,18.000,18.127,,13.2274,,13.2281,,13.2278,33.5453,,33.5465,33.5403,,33.5422,33.5444,5.7700,,6.1004,5.8779,5.8685,,6.1380,5.9744,5.9262,251.350,265.2601,262.2327,255.642,276.5872,264.6822,263.4575,0.1287,,0.7191,0.6372,2.5883,,4.2946,,25.2212,,25.2172,,,,,,,,,,,13.2249,13.2257,0.0521,274.219,96.918,98.571,,,,,,,,,,,,
CalCOFI,2105SH,009,,2105_009d,05-May-2021 21:51:27,05-May-2021 13:51:27,31.84678,-119.56738,093.3 060.0,093.3,060.0,19.000,19.134,,13.2292,,13.2292,,13.2292,33.5464,,33.5476,33.5440,,33.5459,33.5468,5.8122,,6.1445,5.9199,5.8651,,6.1345,5.9710,5.9455,253.187,267.1805,264.1194,255.492,278.5712,264.5289,264.3242,0.1263,,0.7022,0.6260,2.5884,,4.2946,,25.2217,,25.2199,,,,,,,,,,,13.2266,13.2266,0.0548,274.197,97.631,98.518,,,,,,,,,,,,
CalCOFI,2105SH,009,,2105_009d,05-May-2021 21:51:27,05-May-2021 13:51:27,31.84678,-119.56738,093.3 060.0,093.3,060.0,20.000,20.141,,13.2460,,13.2460,,13.2460,33.5560,,33.5572,33.5549,,33.5568,33.5570,5.8298,,6.1629,5.9375,5.8553,,6.1243,5.9612,5.9494,253.953,267.9813,264.9061,255.063,279.3984,264.0904,264.4983,0.1300,,0.7283,0.6434,2.5885,,4.2946,,25.2258,,25.2250,,,,,,,,,,,13.2433,13.2432,0.0576,273.836,97.966,98.394,,,,,,,,,,,,
CalCOFI,2105SH,009,,2105_009d,05-May-2021 21:51:28,05-May-2021 13:51:28,31.84678,-119.56738,093.3 060.0,093.3,060.0,21.000,21.148,,13.2502,,13.2508,,13.2505,33.5595,,33.5607,33.5578,,33.5597,33.5602,5.8199,,6.1526,5.9276,5.8567,,6.1258,5.9626,5.9451,253.520,267.5286,264.4614,255.125,278.9308,264.1538,264.3076,0.1705,,1.0091,0.8338,2.5885,,4.2946,,25.2277,,25.2263,,,,,,,,,,,13.2473,13.2479,0.0603,273.686,97.810,98.429,,,,,,,,,,,,
CalCOFI,2105SH,009,,2105_009d,05-May-2021 21:51:33,05-May-2021 13:51:33,31.84678,-119.56736,093.3 060.0,093.3,060.0,22.000,22.155,,13.2541,,13.2547,,13.2544,33.5627,,33.5639,33.5609,,33.5628,33.5634,5.7826,,6.1135,5.8904,5.8539,,6.1229,5.9598,5.9251,251.894,265.8288,262.7914,255.001,277.1747,264.0270,263.4092,0.1663,,0.9803,0.8141,2.5866,,4.2946,,25.2295,,25.2279,,,,,,,,,,,13.2510,13.2517,0.0640,273.544,97.193,98.392,,,,,,,,,,,,
CalCOFI,2105SH,009,,2105_009d,05-May-2021 21:51:35,05-May-2021 13:51:35,31.84678,-119.56735,093.3 060.0,093.3,060.0,23.000,23.162,,13.2505,,13.2514,,13.2510,33.5631,,33.5643,33.5612,,33.5631,33.5637,5.7694,,6.0997,5.8773,5.8463,,6.1150,5.9522,5.9148,251.318,265.2266,262.1999,254.670,276.5526,263.6888,262.9444,0.1461,,0.8408,0.7191,2.5851,,4.2946,,25.2305,,25.2288,,,,,,,,,,,13.2473,13.2482,0.0671,273.473,96.964,98.258,,,,,,,,,,,,
CalCOFI,2105SH,009,,2105_009d,05-May-2021 21:51:36,05-May-2021 13:51:36,31.84678,-119.56734,093.3 060.0,093.3,060.0,24.000,24.170,,13.2357,,13.2366,,13.2362,33.5624,,33.5636,33.5598,,33.5617,33.5627,5.7735,,6.1040,5.8814,5.8496,,6.1184,5.9555,5.9185,251.499,265.4159,262.3857,254.813,276.7481,263.8349,263.1103,0.1676,,0.9892,0.8202,2.5843,,4.2946,,25.2330,,25.2307,,,,,,,,,,,13.2324,13.2333,0.0698,273.266,97.004,98.282,,,,,,,,,,,,
CalCOFI,2105SH,009,,2105_009d,05-May-2021 21:51:37,05-May-2021 13:51:37,31.84678,-119.56734,093.3 060.0,093.3,060.0,25.000,25.177,,13.2137,,13.2148,,13.2143,33.5602,,33.5614,33.5584,,33.5603,33.5609,5.7754,,6.1060,5.8833,5.8454,,6.1141,5.9513,5.9173,251.580,265.5005,262.4689,254.629,276.8356,263.6469,263.0579,0.2051,,1.2427,0.9965,2.5833,,4.2946,,25.2357,,25.2341,,,,,,,,,,,13.2103,13.2114,0.0726,273.036,96.990,98.167,,,,,,,,,,,,
CalCOFI,2105SH,009,,2105_009d,05-May-2021 21:51:39,05-May-2021 13:51:39,31.84678,-119.56734,093.3 060.0,093.3,060.0,26.000,26.184,,13.2027,,13.2036,,13.2032,33.5621,,33.5633,33.5605,,33.5624,33.5629,5.7661,,6.0963,5.8740,5.8299,,6.0980,5.9358,5.9049,251.174,265.0761,262.0520,253.953,276.3971,262.9560,262.5040,0.2202,,1.3429,1.0675,2.5807,,4.2946,,25.2394,,25.2380,,,,,,,,,,,13.1991,13.2000,0.0753,272.708,96.813,97.885,,,,,,,,,,,,
CalCOFI,2105SH,009,,2105_009d,05-May-2021 21:51:42,05-May-2021 13:51:42,31.84678,-119.56734,093.3 060.0,093.3,060.0,27.000,27.191,,13.1775,,13.1797,,13.1786,33.5636,,33.5648,33.5590,,33.5609,33.5629,5.7462,,6.0755,5.8542,5.7969,,6.0638,5.9028,5.8785,250.307,264.1697,261.1615,252.515,275.4608,261.4863,261.3239,0.2298,,1.4060,1.1126,2.5768,,4.2946,,25.2456,,25.2416,,,,,,,,,,,13.1738,13.1760,0.0781,272.145,96.431,97.282,,,,,,,,,,,,
CalCOFI,2105SH,009,,2105_009d,05-May-2021 21:51:43,05-May-2021 13:51:43,31.84678,-119.56733,093.3 060.0,093.3,060.0,28.000,28.198,,13.0989,,13.1010,,13.1000,33.5534,,33.5546,33.5492,,33.5511,33.5529,5.7228,,6.0510,5.8309,5.8042,,6.0714,5.9101,5.8705,249.286,263.1024,260.1129,252.831,274.3581,261.8093,260.9611,0.2200,,1.3416,1.0666,2.5742,,4.2946,,25.2534,,25.2498,,,,,,,,,,,13.0951,13.0972,0.0808,271.422,95.877,97.241,,,,,,,,,,,,
CalCOFI,2105SH,009,,2105_009d,05-May-2021 21:51:45,05-May-2021 13:51:45,31.84678,-119.56732,093.3 060.0,093.3,060.0,29.000,29.205,,13.0843,,13.0849,,13.0846,33.5506,,33.5518,33.5484,,33.5503,33.5511,5.7063,,6.0337,5.8144,5.8059,,6.0732,5.9118,5.8631,248.565,262.3487,259.3724,252.905,273.5794,261.8849,260.6287,0.2161,,1.3158,1.0482,2.5707,,4.2946,,25.2542,,25.2523,,,,,,,,,,,13.0803,13.0810,0.0836,271.379,95.569,97.237,,,,,,,,,,,,
CalCOFI,2105SH,009,,2105_009d,05-May-2021 21:51:47,05-May-2021 13:51:47,31.84678,-119.56732,093.3 060.0,093.3,060.0,30.000,30.212,,13.0831,,13.0837,,13.0834,33.5501,,33.5513,33.5485,,33.5504,33.5509,5.7412,,6.0702,5.8492,5.7940,,6.0608,5.8999,5.8746,250.086,263.9387,260.9345,252.388,275.2221,261.3565,261.1455,0.2485,,1.5277,1.2006,2.5654,,4.2946,,25.2540,,25.2527,,,,,,,,,,,13.0791,13.0797,0.0863,271.420,96.151,97.036,30,13.200,,,264.98,1.071,0.643,5.51,0.208,0.31,0.67,2.23
CalCOFI,2105SH,009,,2105_009d,05-May-2021 21:51:49,05-May-2021 13:51:49,31.84676,-119.56732,093.3 060.0,093.3,060.0,31.000,31.219,,13.0831,,13.0835,,13.0833,33.5501,,33.5513,33.5489,,33.5508,33.5511,5.7200,,6.0481,5.8281,5.7790,,6.0453,5.8849,5.8565,249.163,262.9738,259.9866,251.733,274.2252,260.6871,260.3369,0.2223,,1.3567,1.0774,2.5616,,4.2946,,25.2541,,25.2531,,,,,,,,,,,13.0789,13.0793,0.0890,271.441,95.796,96.784,,,,,,,,,,,,
CalCOFI,2105SH,009,,2105_009d,05-May-2021 21:51:50,05-May-2021 13:51:50,31.84676,-119.56731,093.3 060.0,093.3,060.0,32.000,32.227,,13.0771,,13.0780,,13.0776,33.5507,,33.5519,33.5486,,33.5505,33.5512,5.6930,,6.0198,5.8012,5.7676,,6.0335,5.8735,5.8374,247.986,261.7434,258.7778,251.236,272.9541,260.1792,259.4785,0.2257,,1.3791,1.0934,2.5584,,4.2946,,25.2557,,25.2540,,,,,,,,,,,13.0727,13.0736,0.0918,271.310,95.332,96.582,,,,,,,,,,,,
CalCOFI,2105SH,009,,2105_009d,05-May-2021 21:51:52,05-May-2021 13:51:52,31.84676,-119.56730,093.3 060.0,093.3,060.0,33.000,33.234,,13.0544,,13.0555,,13.0550,33.5519,,33.5531,33.5502,,33.5521,33.5526,5.7061,,6.0335,5.8142,5.7562,,6.0217,5.8621,5.8382,248.555,262.3382,259.3622,250.737,273.5686,259.6692,259.5157,0.2350,,1.4400,1.1371,2.5539,,4.2946,,25.2612,,25.2597,,,,,,,,,,,13.0500,13.0510,0.0945,270.816,95.508,96.347,,,,,,,,,,,,
CalCOFI,2105SH,009,,2105_009d,05-May-2021 21:51:54,05-May-2021 13:51:54,31.84676,-119.56730,093.3 060.0,093.3,060.0,34.000,34.241,,13.0439,,13.0449,,13.0444,33.5518,,33.5530,33.5503,,33.5522,33.5526,5.6855,,6.0120,5.7937,5.7271,,5.9915,5.8330,5.8134,247.656,261.3984,258.4389,249.471,272.5977,258.3753,258.4071,0.2534,,1.5593,1.2236,2.5473,,4.2946,,25.2633,,25.2619,,,,,,,,,,,13.0393,13.0403,0.0972,270.643,95.142,95.840,,,,,,,,,,,,
CalCOFI,2105SH,009,,2105_009d,05-May-2021 21:51:56,05-May-2021 13:51:56,31.84676,-119.56730,093.3 060.0,093.3,060.0,35.000,35.248,,13.0310,,13.0316,,13.0313,33.5532,,33.5544,33.5520,,33.5539,33.5542,5.6266,,5.9504,5.7350,5.7323,,5.9969,5.8382,5.7866,245.092,258.7180,255.8056,249.694,269.8285,258.6032,257.2044,0.2301,,1.4080,1.1141,2.5440,,4.2946,,25.2670,,25.2659,,,,,,,,,,,13.0262,13.0268,0.0999,270.323,94.133,95.900,,,,,,,,,,,,
CalCOFI,2105SH,009,,2105_009d,05-May-2021 21:51:58,05-May-2021 13:51:58,31.84676,-119.56730,093.3 060.0,093.3,060.0,36.000,36.255,,13.0308,,13.0313,,13.0311,33.5539,,33.5551,33.5530,,33.5549,33.5550,5.6722,,5.9981,5.7804,5.7351,,5.9998,5.8410,5.8107,247.077,260.7931,257.8442,249.817,271.9723,258.7289,258.2866,0.2498,,1.5361,1.2067,2.5390,,4.2946,,25.2675,,25.2668,,,,,,,,,,,13.0259,13.0264,0.1027,270.296,94.895,95.948,,,,,,,,,,,,
CalCOFI,2105SH,009,,2105_009d,05-May-2021 21:52:01,05-May-2021 13:52:01,31.84675,-119.56730,093.3 060.0,093.3,060.0,37.000,37.263,,13.0314,,13.0321,,13.0318,33.5550,,33.5562,33.5542,,33.5561,33.5562,5.6688,,5.9945,5.7771,5.7306,,5.9952,5.8365,5.8068,246.929,260.6384,257.6922,249.620,271.8125,258.5276,258.1099,0.2507,,1.5419,1.2109,2.5340,,4.2946,,25.2683,,25.2676,,,,,,,,,,,13.0263,13.0270,0.1054,270.247,94.840,95.875,,,,,,,,,,,,
CalCOFI,2105SH,009,,2105_009d,05-May-2021 21:52:02,05-May-2021 13:52:02,31.84674,-119.56730,093.3 060.0,093.3,060.0,38.000,38.270,,13.0319,,13.0323,,13.0321,33.5558,,33.5570,33.5552,,33.5571,33.5571,5.6504,,5.9753,5.7587,5.7273,,5.9917,5.8332,5.7960,246.125,259.7979,256.8665,249.476,270.9442,258.3804,257.6235,0.2305,,1.4106,1.1159,2.5327,,4.2946,,25.2689,,25.2684,,,,,,,,,,,13.0267,13.0271,0.1081,270.222,94.533,95.821,,,,,,,,,,,,
CalCOFI,2105SH,009,,2105_009d,05-May-2021 21:52:02,05-May-2021 13:52:02,31.84674,-119.56730,093.3 060.0,093.3,060.0,39.000,39.277,,13.0325,,13.0326,,13.0326,33.5566,,33.5578,33.5559,,33.5578,33.5578,5.6279,,5.9518,5.7363,5.7200,,5.9842,5.8259,5.7811,245.149,258.7776,255.8641,249.157,269.8901,258.0544,256.9593,0.2390,,1.4661,1.1559,2.5315,,4.2946,,25.2694,,25.2688,,,,,,,,,,,13.0272,13.0273,0.1108,270.198,94.160,95.699,,,,,,,,,,,,
CalCOFI,2105SH,009,,2105_009d,05-May-2021 21:52:05,05-May-2021 13:52:05,31.84674,-119.56728,093.3 060.0,093.3,060.0,40.000,40.284,,13.0308,,13.0312,,13.0310,33.5572,,33.5584,33.5566,,33.5585,33.5585,5.6591,,5.9844,5.7674,5.7174,,5.9815,5.8233,5.7954,246.508,260.1983,257.2598,249.047,271.3578,257.9420,257.6009,0.2487,,1.5290,1.2015,2.5281,,4.2946,,25.2703,,25.2697,,,,,,,,,,,13.0253,13.0257,0.1137,270.145,94.679,95.655,,,,,,,,,,,,
CalCOFI,2105SH,009,,2105_009d,05-May-2021 21:52:08,05-May-2021 13:52:08,31.84674,-119.56728,093.3 060.0,093.3,060.0,41.000,41.291,,13.0289,,13.0296,,13.0293,33.5575,,33.5587,33.5571,,33.5590,33.5589,5.6512,,5.9761,5.7595,5.6956,,5.9589,5.8015,5.7805,246.161,259.8355,256.9034,248.095,270.9831,256.9690,256.9362,0.2381,,1.4602,1.1517,2.5236,,4.2946,,25.2708,,25.2704,,,,,,,,,,,13.0233,13.0240,0.1166,270.116,94.543,95.286,,,,,,,,,,,,
CalCOFI,2105SH,009,,2105_009d,05-May-2021 21:52:09,05-May-2021 13:52:09,31.84674,-119.56728,093.3 060.0,093.3,060.0,42.000,42.298,,13.0273,,13.0279,,13.0276,33.5579,,33.5591,33.5572,,33.5591,33.5591,5.6221,,5.9457,5.7305,5.6922,,5.9554,5.7981,5.7643,244.895,258.5120,255.6032,247.947,269.6158,256.8177,256.2105,0.2404,,1.4752,1.1625,2.5223,,4.2946,,25.2715,,25.2708,,,,,,,,,,,13.0216,13.0222,0.1193,270.083,94.053,95.226,,,,,,,,,,,,
CalCOFI,2105SH,009,,2105_009d,05-May-2021 21:52:10,05-May-2021 13:52:10,31.84674,-119.56727,093.3 060.0,093.3,060.0,43.000,43.306,,13.0217,,13.0225,,13.0221,33.5581,,33.5593,33.5572,,33.5591,33.5592,5.5954,,5.9178,5.7039,5.6947,,5.9580,5.8006,5.7523,243.729,257.2931,254.4057,248.056,268.3565,256.9291,255.6674,0.2426,,1.4895,1.1728,2.5209,,4.2946,,25.2728,,25.2720,,,,,,,,,,,13.0158,13.0166,0.1220,269.980,93.595,95.257,,,,,,,,,,,,
CalCOFI,2105SH,009,,2105_009d,05-May-2021 21:52:13,05-May-2021 13:52:13,31.84674,-119.56727,093.3 060.0,093.3,060.0,44.000,44.313,,13.0144,,13.0152,,13.0148,33.5581,,33.5593,33.5574,,33.5593,33.5593,5.6171,,5.9405,5.7256,5.6764,,5.9390,5.7823,5.7540,244.675,258.2820,255.3773,247.259,269.3782,256.1146,255.7460,0.2317,,1.4185,1.1216,2.5169,,4.2946,,25.2742,,25.2736,,,,,,,,,,,13.0084,13.0093,0.1248,269.873,93.944,94.937,,,,,,,,,,,,
CalCOFI,2105SH,009,,2105_009d,05-May-2021 21:52:15,05-May-2021 13:52:15,31.84674,-119.56726,093.3 060.0,093.3,060.0,45.000,45.320,,13.0031,,13.0042,,13.0037,33.5589,,33.5601,33.5576,,33.5595,33.5598,5.5745,,5.8959,5.6831,5.6526,,5.9144,5.7585,5.7208,242.821,256.3439,253.4732,246.224,267.3759,255.0568,254.2650,0.2120,,1.2886,1.0289,2.5118,,4.2946,,25.2771,,25.2759,,,,,,,,,,,12.9969,12.9981,0.1275,269.625,93.211,94.519,,,,,,,,,,,,
CalCOFI,2105SH,009,,2105_009d,05-May-2021 21:52:16,05-May-2021 13:52:16,31.84674,-119.56726,093.3 060.0,093.3,060.0,46.000,46.327,,12.9942,,12.9941,,12.9942,33.5588,,33.5600,33.5577,,33.5596,33.5598,5.5670,,5.8881,5.6756,5.6570,,5.9189,5.7629,5.7193,242.491,255.9989,253.1342,246.414,267.0195,255.2510,254.1926,0.2074,,1.2581,1.0073,2.5103,,4.2946,,25.2789,,25.2780,,,,,,,,,,,12.9880,12.9879,0.1302,269.485,93.068,94.572,,,,,,,,,,,,
CalCOFI,2105SH,009,,2105_009d,05-May-2021 21:52:17,05-May-2021 13:52:17,31.84674,-119.56725,093.3 060.0,093.3,060.0,47.000,47.335,,12.9879,,12.9879,,12.9879,33.5589,,33.5601,33.5580,,33.5599,33.5600,5.5710,,5.8923,5.6796,5.6628,,5.9249,5.7687,5.7242,242.665,256.1808,253.3129,246.667,267.2074,255.5096,254.4113,0.2278,,1.3929,1.1032,2.5088,,4.2946,,25.2802,,25.2795,,,,,,,,,,,12.9815,12.9815,0.1329,269.387,93.122,94.658,,,,,,,,,,,,
CalCOFI,2105SH,009,,2105_009d,05-May-2021 21:52:20,05-May-2021 13:52:20,31.84674,-119.56724,093.3 060.0,093.3,060.0,48.000,48.342,,12.9844,,12.9867,,12.9856,33.5585,,33.5597,33.5578,,33.5597,33.5597,5.5694,,5.8906,5.6780,5.6487,,5.9103,5.7546,5.7163,242.595,256.1076,253.2410,246.051,267.1318,254.8800,254.0605,0.2041,,1.2361,0.9918,2.5038,,4.2946,,25.2806,,25.2796,,,,,,,,,,,12.9779,12.9802,0.1358,269.374,93.089,94.419,,,,,,,,,,,,
CalCOFI,2105SH,009,,2105_009d,05-May-2021 21:52:23,05-May-2021 13:52:23,31.84674,-119.56724,093.3 060.0,093.3,060.0,49.000,49.349,,12.9693,,12.9695,,12.9694,33.5600,,33.5612,33.5594,,33.5613,33.5613,5.5451,,5.8652,5.6538,5.6184,,5.8789,5.7244,5.6891,241.536,255.0005,252.1534,244.730,265.9881,253.5299,252.8417,0.1956,,1.1791,0.9518,2.4966,,4.2946,,25.2848,,25.2843,,,,,,,,,,,12.9626,12.9629,0.1388,269.003,92.655,93.880,,,,,,,,,,,,
CalCOFI,2105SH,009,,2105_009d,05-May-2021 21:52:24,05-May-2021 13:52:24,31.84674,-119.56724,093.3 060.0,093.3,060.0,50.000,50.356,,12.9655,,12.9657,,12.9656,33.5622,,33.5634,33.5616,,33.5635,33.5635,5.5436,,5.8636,5.6523,5.6149,,5.8753,5.7209,5.6866,241.470,254.9315,252.0856,244.575,265.9168,253.3715,252.7286,0.1824,,1.0901,0.8898,2.4944,,4.2946,,25.2873,,25.2868,,,,,,,,,,,12.9588,12.9589,0.1414,268.791,92.623,93.814,,,,,,,,,,,,
CalCOFI,2105SH,009,,2105_009d,05-May-2021 21:52:25,05-May-2021 13:52:25,31.84674,-119.56724,093.3 060.0,093.3,060.0,51.000,51.364,,12.9620,,12.9626,,12.9623,33.5634,,33.5646,33.5626,,33.5645,33.5646,5.5308,,5.8502,5.6396,5.6007,,5.8606,5.7067,5.6732,240.912,254.3482,251.5126,243.957,265.3141,252.7399,252.1263,0.1705,,1.0091,0.8338,2.4912,,4.2946,,25.2889,,25.2882,,,,,,,,,,,12.9551,12.9557,0.1442,268.663,92.404,93.572,51,13.030,,,255.26,0.860,0.636,7.15,0.195,0.51,0.80,4.02
CalCOFI,2105SH,009,,2105_009d,05-May-2021 21:52:27,05-May-2021 13:52:27,31.84674,-119.56724,093.3 060.0,093.3,060.0,52.000,52.371,,12.9466,,12.9475,,12.9471,33.5672,,33.5684,33.5660,,33.5679,33.5682,5.5200,,5.8389,5.6288,5.5918,,5.8514,5.6978,5.6633,240.442,253.8569,251.0298,243.571,264.8065,252.3454,251.6876,0.1753,,1.0418,0.8564,2.4861,,4.2946,,25.2950,,25.2939,,,,,,,,,,,12.9395,12.9404,0.1469,268.115,92.197,93.397,,,,,,,,,,,,
CalCOFI,2105SH,009,,2105_009d,05-May-2021 21:52:29,05-May-2021 13:52:29,31.84674,-119.56722,093.3 060.0,093.3,060.0,53.000,53.378,,12.9282,,12.9288,,12.9285,33.5702,,33.5714,33.5685,,33.5704,33.5709,5.5007,,5.8187,5.6096,5.5691,,5.8279,5.6751,5.6424,239.598,252.9745,250.1630,242.578,263.8950,251.3305,250.7468,0.1682,,0.9933,0.8230,2.4815,,4.2946,,25.3010,,25.2995,,,,,,,,,,,12.9210,12.9216,0.1496,267.571,91.841,92.983,,,,,,,,,,,,
CalCOFI,2105SH,009,,2105_009d,05-May-2021 21:52:30,05-May-2021 13:52:30,31.84674,-119.56722,093.3 060.0,093.3,060.0,54.000,54.385,,12.8927,,12.8942,,12.8935,33.5759,,33.5771,33.5731,,33.5750,33.5761,5.4908,,5.8084,5.5997,5.5460,,5.8039,5.6520,5.6259,239.166,252.5229,249.7194,241.569,263.4284,250.2993,250.0094,0.1652,,0.9728,0.8089,2.4773,,4.2946,,25.3124,,25.3099,,,,,,,,,,,12.8855,12.8869,0.1523,266.508,91.612,92.534,,,,,,,,,,,,
CalCOFI,2105SH,009,,2105_009d,05-May-2021 21:52:33,05-May-2021 13:52:33,31.84672,-119.56721,093.3 060.0,093.3,060.0,55.000,55.393,,12.8263,,12.8279,,12.8271,33.5882,,33.5894,33.5858,,33.5877,33.5886,5.4808,,5.7979,5.5898,5.5415,,5.7993,5.6475,5.6187,238.722,252.0588,249.2634,241.369,262.9489,250.0949,249.6792,0.1591,,0.9308,0.7802,2.4691,,4.2946,,25.3350,,25.3328,,,,,,,,,,,12.8189,12.8205,0.1549,264.379,91.326,92.339,,,,,,,,,,,,
CalCOFI,2105SH,009,,2105_009d,05-May-2021 21:52:35,05-May-2021 13:52:35,31.84673,-119.56720,093.3 060.0,093.3,060.0,56.000,56.400,,12.8123,,12.8135,,12.8129,33.5911,,33.5923,33.5895,,33.5914,33.5919,5.4625,,5.7788,5.5715,5.5391,,5.7968,5.6451,5.6083,237.925,251.2256,248.4448,241.263,262.0882,249.9866,249.2157,0.1546,,0.8998,0.7590,2.4619,,4.2946,,25.3400,,25.3386,,,,,,,,,,,12.8047,12.8060,0.1576,263.925,90.996,92.274,,,,,,,,,,,,